Find Starlink 37751

NORAD ID: 100491 Int'l Des: 2026-196 Owner: SPXS Country: US Constellation: starlink operational

Aktuelle Ansicht

3D-Globus wird geladen...

About Starlink 37751

Starlink 37751 (NORAD 100491) is a starlink constellation satellite launched Aug 25, 2026 by SPXS of US. with a mass of 575.00 kg.

Nächste Überflüge

Passes for default location (London). Set your location on the main map for personalized predictions.

Höhenverlauf

Loading altitude history...

Zweizeiliger Elementsatz

1 A0491U 26196U 26247.67396730 -.00958309 28616-3 -26714-2 0 9994
2 A0491 53.1592 320.9486 0000548 37.6037 322.5029 15.93013962 2853
Epoch: 4. Sept. 2026 • Age: 23 hours

Aktueller Status

Höhe 305.0 km
Apogäum / Perigäum N/A
Geschwindigkeit 7.73 km/s
Subsatellitenpunkt 53.31°N, 166.88°W
Startdatum 25. Aug. 2026
Alter 11 days
Typ internet

Technische Details

Klassifizierung Payload
Masse 575.00 kg
Trockenmasse 530.00 kg
Gesamtmasse 575.00 kg
Länge 0.30 m
Durchmesser 4.10 m
Spannweite 29.00 m
Form Box + pan
Hersteller SPXS
Bus-Typ Starlink V2MO
Phasenstatus In Orbit
Besitzer/Staat SPXS/US

Most Searched